Weather History for Joplin, MO

Change the Weather History Date:

Tuesday, March 12, 2013

  Actual Average Record
Temperature  
Mean Temperature 41 °F 48 °F  
Max Temperature 54 °F 59 °F 83 °F (2006)
Min Temperature 28 °F 37 °F -5 °F (1948)
Degree Days  
Heating Degree Days 24 17  
Month to date heating degree days 274 230  
Since 1 July heating degree days 3390 3484  
Cooling Degree Days 0 0  
Month to date cooling degree days 0 0  
Year to date cooling degree days 1 1  
Moisture  
Dew Point 25 °F    
Average Humidity 57    
Maximum Humidity 78    
Minimum Humidity 35    
Precipitation  
Precipitation 0.00 in 0.11 in 0.64 in (1980)
Month to date precipitation 0.99 1.24  
Year to date precipitation 6.14 5.59  
Snow  
Snow 0.00 in - - ()
Month to date snowfall T  
Snow Depth 0.00 in    
Sea Level Pressure  
Sea Level Pressure 30.21 in    
Wind  
Wind Speed 8 mph (WNW)    
Max Wind Speed 25 mph    
Max Gust Speed 33 mph    
Visibility 10 miles    
Events      
T = Trace of Precipitation, MM = Missing Value Source: NWS Daily Summary

Daily Weather History Graph

Daily Weather History Graph

Search for Another Location

Airport:

Trip Planner

Search our weather history database for the weather conditions in past years. The results will help you decide how hot, cold, wet, or windy it might be!

Date:

Astronomy

Mar. 12, 2013 Rise Set
Actual Time 7:32 AM CDT 7:22 PM CDT
Civil Twilight 7:07 AM CDT 7:48 PM CDT
Nautical Twilight 6:36 AM CDT 8:18 PM CDT
Astronomical Twilight 6:06 AM CDT 8:49 PM CDT
Moon 7:42 AM CDT (3/12) 8:35 PM CDT (3/12)
Length of Visible Light 12h 41m
Length of Day
11h 49m
New Moon, 1% of the Moon is Illuminated
Mar 12
New Moon
Mar 19
First Quarter
Mar 27
Full
Apr 2
Last Quarter
Apr 10
New

Hourly Weather History & Observations

Time (CDT) Temp. Windchill Dew Point Humidity Pressure Visibility Wind Dir Wind Speed Gust Speed Precip Events Conditions
12:53 AM 28.0 °F 20.8 °F 21.9 °F 78% 30.06 in 10.0 mi South 6.9 mph - N/A   Clear
1:53 AM 28.9 °F 25.2 °F 21.9 °F 75% 30.07 in 10.0 mi South 3.5 mph - N/A   Clear
2:53 AM 30.0 °F 23.2 °F 23.0 °F 75% 30.09 in 10.0 mi South 6.9 mph - N/A   Clear
3:53 AM 32.0 °F - 21.0 °F 64% 30.09 in 10.0 mi Calm Calm - N/A   Clear
4:53 AM 30.9 °F - 25.0 °F 79% 30.09 in 10.0 mi Calm Calm - N/A   Mostly Cloudy
5:53 AM 33.1 °F - 26.1 °F 75% 30.12 in 10.0 mi Calm Calm - N/A   Mostly Cloudy
6:53 AM 35.1 °F 32.2 °F 24.1 °F 64% 30.14 in 10.0 mi WSW 3.5 mph - N/A   Overcast
7:53 AM 34.0 °F - 27.0 °F 75% 30.17 in 10.0 mi Calm Calm - N/A   Overcast
8:53 AM 36.0 °F 31.1 °F 27.0 °F 70% 30.20 in 10.0 mi WNW 5.8 mph - N/A   Overcast
9:53 AM 39.0 °F 33.4 °F 28.0 °F 65% 30.23 in 10.0 mi NNW 8.1 mph - N/A   Partly Cloudy
10:53 AM 43.0 °F 39.5 °F 30.0 °F 60% 30.24 in 10.0 mi NW 5.8 mph - N/A   Partly Cloudy
11:53 AM 46.9 °F - 28.9 °F 50% 30.26 in 10.0 mi WNW 5.8 mph - N/A   Scattered Clouds
12:53 PM 50.0 °F - 27.0 °F 41% 30.24 in 10.0 mi WNW 10.4 mph - N/A   Clear
1:53 PM 52.0 °F - 26.1 °F 37% 30.24 in 10.0 mi NW 10.4 mph - N/A   Clear
2:53 PM 53.1 °F - 27.0 °F 37% 30.22 in 10.0 mi NW 10.4 mph 18.4 mph N/A   Mostly Cloudy
3:53 PM 51.1 °F - 27.0 °F 39% 30.22 in 10.0 mi WNW 17.3 mph 23.0 mph N/A   Scattered Clouds
4:53 PM 51.1 °F - 27.0 °F 39% 30.22 in 10.0 mi WNW 15.0 mph - N/A   Overcast
5:53 PM 51.1 °F - 24.1 °F 35% 30.22 in 10.0 mi NW 24.2 mph 33.4 mph N/A   Partly Cloudy
6:53 PM 48.0 °F - 25.0 °F 41% 30.24 in 10.0 mi NW 12.7 mph 23.0 mph N/A   Clear
7:53 PM 43.0 °F 36.0 °F 19.9 °F 40% 30.28 in 10.0 mi NW 13.8 mph - N/A   Clear
8:53 PM 41.0 °F 34.3 °F 19.0 °F 41% 30.31 in 10.0 mi NW 11.5 mph - N/A   Clear
9:53 PM 37.9 °F 31.5 °F 21.9 °F 53% 30.33 in 10.0 mi NNW 9.2 mph - N/A   Clear
10:53 PM 35.1 °F - 21.9 °F 59% 30.35 in 10.0 mi Calm Calm - N/A   Clear
11:53 PM 36.0 °F 33.3 °F 21.0 °F 55% 30.36 in 10.0 mi North 3.5 mph - N/A   Clear